Wetterdaten: Mittwoch, 23.12.2015
Datum Zeit Temp. A. Feuchte A. Luftdruck Regen Wind Richtung Richtung Sonnenschein ET UV Solar Taupunkt Windchill Windben Empfang
23.12.2015 00:00 2,8 C 92 % 1027,6 hPa 0,0 l/m 4,3 km/h (1 Bft) SO 126 0 min 0,000 mm 0,0 UV-I 0 W/m 1,6 C 2,8 C 6,4 km/h (2 Bft) 97,52 %
23.12.2015 00:05 2,6 C 92 % 1027,6 hPa 0,0 l/m 2,1 km/h (1 Bft) SO 126 0 min 0,000 mm 0,0 UV-I 0 W/m 1,4 C 2,6 C 4,8 km/h (1 Bft) 98,25 %
23.12.2015 00:10 3,1 C 91 % 1027,5 hPa 0,0 l/m 0,5 km/h (0 Bft) SO 130 0 min 0,000 mm 0,0 UV-I 0 W/m 1,8 C 3,1 C 1,6 km/h (1 Bft) 99,15 %
23.12.2015 00:15 2,8 C 91 % 1027,6 hPa 0,0 l/m 0,9 km/h (0 Bft) SO 130 0 min 0,000 mm 0,0 UV-I 0 W/m 1,5 C 2,8 C 3,2 km/h (1 Bft) 96,43 %
23.12.2015 00:20 2,3 C 92 % 1027,6 hPa 0,0 l/m 1,9 km/h (1 Bft) SO 136 0 min 0,000 mm 0,0 UV-I 0 W/m 1,1 C 2,3 C 4,8 km/h (1 Bft) 99,19 %
23.12.2015 00:25 2,2 C 93 % 1027,6 hPa 0,0 l/m 1,1 km/h (1 Bft) SO 136 0 min 0,000 mm 0,0 UV-I 0 W/m 1,2 C 2,2 C 3,2 km/h (1 Bft) 100,00 %
23.12.2015 00:30 2,5 C 94 % 1027,5 hPa 0,0 l/m 2,1 km/h (1 Bft) S 176 0 min 0,000 mm 0,0 UV-I 0 W/m 1,6 C 2,5 C 3,2 km/h (1 Bft) 98,43 %
23.12.2015 00:35 2,4 C 93 % 1027,5 hPa 0,0 l/m 1,4 km/h (1 Bft) S 176 0 min 0,000 mm 0,0 UV-I 0 W/m 1,4 C 2,4 C 3,2 km/h (1 Bft) 100,00 %
23.12.2015 00:40 2,1 C 93 % 1027,4 hPa 0,0 l/m 3,7 km/h (1 Bft) S 177 0 min 0,000 mm 0,0 UV-I 0 W/m 1,1 C 2,1 C 4,8 km/h (1 Bft) 99,21 %
23.12.2015 00:45 2,1 C 94 % 1027,4 hPa 0,0 l/m 1,5 km/h (1 Bft) S 175 0 min 0,000 mm 0,0 UV-I 0 W/m 1,2 C 2,1 C 4,8 km/h (1 Bft) 99,11 %
23.12.2015 00:50 2,6 C 93 % 1027,3 hPa 0,0 l/m 1,6 km/h (1 Bft) S-SO 157 0 min 0,000 mm 0,0 UV-I 0 W/m 1,6 C 2,6 C 6,4 km/h (2 Bft) 100,00 %
23.12.2015 00:55 2,4 C 92 % 1027,3 hPa 0,0 l/m 4,7 km/h (1 Bft) SO 140 0 min 0,000 mm 0,0 UV-I 0 W/m 1,2 C 2,4 C 8,0 km/h (2 Bft) 99,13 %
23.12.2015 01:00 2,4 C 93 % 1027,1 hPa 0,0 l/m 5,2 km/h (1 Bft) SO 140 0 min 0,000 mm 0,0 UV-I 0 W/m 1,4 C 2,4 C 6,4 km/h (2 Bft) 100,00 %
23.12.2015 01:05 2,6 C 93 % 1027,1 hPa 0,0 l/m 2,7 km/h (1 Bft) S-SO 147 0 min 0,000 mm 0,0 UV-I 0 W/m 1,6 C 2,6 C 6,4 km/h (2 Bft) 100,00 %
23.12.2015 01:10 2,5 C 92 % 1027,1 hPa 0,0 l/m 1,5 km/h (1 Bft) S-SO 148 0 min 0,000 mm 0,0 UV-I 0 W/m 1,3 C 2,5 C 3,2 km/h (1 Bft) 99,15 %
23.12.2015 01:15 1,9 C 92 % 1027,1 hPa 0,0 l/m 2,1 km/h (1 Bft) S-SO 156 0 min 0,000 mm 0,0 UV-I 0 W/m 0,7 C 1,9 C 4,8 km/h (1 Bft) 100,00 %
23.12.2015 01:20 1,8 C 94 % 1027,1 hPa 0,0 l/m 2,3 km/h (1 Bft) S 178 0 min 0,000 mm 0,0 UV-I 0 W/m 0,9 C 1,8 C 6,4 km/h (2 Bft) 100,00 %
23.12.2015 01:25 1,7 C 94 % 1027,1 hPa 0,0 l/m 3,5 km/h (1 Bft) S 179 0 min 0,000 mm 0,0 UV-I 0 W/m 0,8 C 1,7 C 4,8 km/h (1 Bft) 98,35 %
23.12.2015 01:30 1,6 C 94 % 1027,2 hPa 0,0 l/m 3,2 km/h (1 Bft) S 179 0 min 0,000 mm 0,0 UV-I 0 W/m 0,7 C 1,6 C 4,8 km/h (1 Bft) 100,00 %
23.12.2015 01:35 1,7 C 95 % 1027,2 hPa 0,0 l/m 3,0 km/h (1 Bft) SW 231 0 min 0,000 mm 0,0 UV-I 0 W/m 1,0 C 1,7 C 4,8 km/h (1 Bft) 100,00 %
23.12.2015 01:40 1,9 C 95 % 1027,2 hPa 0,0 l/m 4,1 km/h (1 Bft) SW 231 0 min 0,000 mm 0,0 UV-I 0 W/m 1,2 C 1,9 C 6,4 km/h (2 Bft) 97,62 %
23.12.2015 01:45 2,1 C 93 % 1027,2 hPa 0,0 l/m 3,6 km/h (1 Bft) SW 231 0 min 0,000 mm 0,0 UV-I 0 W/m 1,1 C 2,1 C 4,8 km/h (1 Bft) 97,39 %
23.12.2015 01:50 1,9 C 92 % 1027,3 hPa 0,0 l/m 3,1 km/h (1 Bft) SW 230 0 min 0,000 mm 0,0 UV-I 0 W/m 0,7 C 1,9 C 4,8 km/h (1 Bft) 97,46 %
23.12.2015 01:55 1,6 C 93 % 1027,3 hPa 0,0 l/m 3,8 km/h (1 Bft) S 185 0 min 0,000 mm 0,0 UV-I 0 W/m 0,6 C 1,6 C 4,8 km/h (1 Bft) 98,20 %
23.12.2015 02:00 1,8 C 94 % 1027,3 hPa 0,0 l/m 4,7 km/h (1 Bft) S-SW 206 0 min 0,000 mm 0,0 UV-I 0 W/m 0,9 C 1,8 C 6,4 km/h (2 Bft) 96,77 %
23.12.2015 02:05 2,2 C 94 % 1027,2 hPa 0,0 l/m 5,6 km/h (1 Bft) S 172 0 min 0,000 mm 0,0 UV-I 0 W/m 1,3 C 2,2 C 8,0 km/h (2 Bft) 96,52 %
23.12.2015 02:10 2,3 C 93 % 1027,2 hPa 0,0 l/m 3,9 km/h (1 Bft) S 188 0 min 0,000 mm 0,0 UV-I 0 W/m 1,3 C 2,3 C 6,4 km/h (2 Bft) 97,50 %
23.12.2015 02:15 2,3 C 93 % 1027,1 hPa 0,0 l/m 3,6 km/h (1 Bft) S-SW 200 0 min 0,000 mm 0,0 UV-I 0 W/m 1,3 C 2,3 C 6,4 km/h (2 Bft) 96,69 %
23.12.2015 02:20 2,5 C 93 % 1027,1 hPa 0,0 l/m 3,7 km/h (1 Bft) S-SW 211 0 min 0,000 mm 0,0 UV-I 0 W/m 1,5 C 2,5 C 4,8 km/h (1 Bft) 99,08 %
23.12.2015 02:25 2,5 C 92 % 1027,0 hPa 0,0 l/m 4,3 km/h (1 Bft) SW 216 0 min 0,000 mm 0,0 UV-I 0 W/m 1,3 C 2,5 C 6,4 km/h (2 Bft) 97,62 %
23.12.2015 02:30 2,4 C 92 % 1026,9 hPa 0,0 l/m 2,3 km/h (1 Bft) SW 216 0 min 0,000 mm 0,0 UV-I 0 W/m 1,2 C 2,4 C 3,2 km/h (1 Bft) 100,00 %
23.12.2015 02:35 2,4 C 92 % 1026,9 hPa 0,0 l/m 2,1 km/h (1 Bft) SW 215 0 min 0,000 mm 0,0 UV-I 0 W/m 1,2 C 2,4 C 4,8 km/h (1 Bft) 99,12 %
23.12.2015 02:40 2,6 C 92 % 1026,9 hPa 0,0 l/m 1,3 km/h (1 Bft) SW 215 0 min 0,000 mm 0,0 UV-I 0 W/m 1,4 C 2,6 C 3,2 km/h (1 Bft) 99,13 %
23.12.2015 02:45 2,5 C 92 % 1027,0 hPa 0,0 l/m 2,5 km/h (1 Bft) SW 215 0 min 0,000 mm 0,0 UV-I 0 W/m 1,3 C 2,5 C 4,8 km/h (1 Bft) 99,19 %
23.12.2015 02:50 2,2 C 92 % 1026,9 hPa 0,0 l/m 1,9 km/h (1 Bft) S 190 0 min 0,000 mm 0,0 UV-I 0 W/m 1,0 C 2,2 C 3,2 km/h (1 Bft) 98,15 %
23.12.2015 02:55 2,1 C 92 % 1026,8 hPa 0,0 l/m 3,3 km/h (1 Bft) S 188 0 min 0,000 mm 0,0 UV-I 0 W/m 0,9 C 2,1 C 4,8 km/h (1 Bft) 99,17 %
23.12.2015 03:00 2,1 C 93 % 1026,8 hPa 0,0 l/m 2,9 km/h (1 Bft) S 188 0 min 0,000 mm 0,0 UV-I 0 W/m 1,1 C 2,1 C 4,8 km/h (1 Bft) 100,00 %
23.12.2015 03:05 2,2 C 93 % 1026,8 hPa 0,0 l/m 1,8 km/h (1 Bft) S 188 0 min 0,000 mm 0,0 UV-I 0 W/m 1,2 C 2,2 C 3,2 km/h (1 Bft) 99,11 %
23.12.2015 03:10 2,1 C 93 % 1026,8 hPa 0,0 l/m 2,0 km/h (1 Bft) S 188 0 min 0,000 mm 0,0 UV-I 0 W/m 1,1 C 2,1 C 3,2 km/h (1 Bft) 99,19 %
23.12.2015 03:15 1,8 C 93 % 1026,7 hPa 0,0 l/m 2,3 km/h (1 Bft) S 188 0 min 0,000 mm 0,0 UV-I 0 W/m 0,8 C 1,8 C 3,2 km/h (1 Bft) 99,07 %
23.12.2015 03:20 1,7 C 93 % 1026,8 hPa 0,0 l/m 3,0 km/h (1 Bft) S 188 0 min 0,000 mm 0,0 UV-I 0 W/m 0,7 C 1,7 C 4,8 km/h (1 Bft) 100,00 %
23.12.2015 03:25 1,4 C 94 % 1026,9 hPa 0,0 l/m 3,1 km/h (1 Bft) S 188 0 min 0,000 mm 0,0 UV-I 0 W/m 0,5 C 1,4 C 4,8 km/h (1 Bft) 99,08 %
23.12.2015 03:30 1,4 C 94 % 1027,0 hPa 0,0 l/m 2,8 km/h (1 Bft) S 188 0 min 0,000 mm 0,0 UV-I 0 W/m 0,5 C 1,4 C 4,8 km/h (1 Bft) 99,21 %
23.12.2015 03:35 1,2 C 94 % 1026,9 hPa 0,0 l/m 3,4 km/h (1 Bft) S 188 0 min 0,000 mm 0,0 UV-I 0 W/m 0,3 C 1,2 C 4,8 km/h (1 Bft) 100,00 %
23.12.2015 03:40 1,3 C 95 % 1026,9 hPa 0,0 l/m 3,1 km/h (1 Bft) S 188 0 min 0,000 mm 0,0 UV-I 0 W/m 0,6 C 1,3 C 4,8 km/h (1 Bft) 99,17 %
23.12.2015 03:45 1,7 C 95 % 1026,8 hPa 0,0 l/m 3,6 km/h (1 Bft) S-SW 212 0 min 0,000 mm 0,0 UV-I 0 W/m 1,0 C 1,7 C 4,8 km/h (1 Bft) 100,00 %
23.12.2015 03:50 1,9 C 94 % 1026,8 hPa 0,0 l/m 3,5 km/h (1 Bft) S-SW 212 0 min 0,000 mm 0,0 UV-I 0 W/m 1,0 C 1,9 C 4,8 km/h (1 Bft) 100,00 %
23.12.2015 03:55 1,6 C 92 % 1026,8 hPa 0,0 l/m 4,4 km/h (1 Bft) S-SW 210 0 min 0,000 mm 0,0 UV-I 0 W/m 0,4 C 1,6 C 6,4 km/h (2 Bft) 97,30 %
23.12.2015 04:00 1,1 C 94 % 1026,9 hPa 0,0 l/m 3,6 km/h (1 Bft) S-SW 210 0 min 0,000 mm 0,0 UV-I 0 W/m 0,2 C 1,1 C 6,4 km/h (2 Bft) 94,07 %
23.12.2015 04:05 1,2 C 95 % 1026,9 hPa 0,0 l/m 1,8 km/h (1 Bft) S-SW 210 0 min 0,000 mm 0,0 UV-I 0 W/m 0,5 C 1,2 C 3,2 km/h (1 Bft) 97,98 %
23.12.2015 04:10 1,3 C 95 % 1026,9 hPa 0,0 l/m 1,6 km/h (1 Bft) S-SW 210 0 min 0,000 mm 0,0 UV-I 0 W/m 0,6 C 1,3 C 3,2 km/h (1 Bft) 94,87 %
23.12.2015 04:15 1,4 C 95 % 1026,9 hPa 0,0 l/m 1,4 km/h (1 Bft) S-SW 210 0 min 0,000 mm 0,0 UV-I 0 W/m 0,7 C 1,4 C 3,2 km/h (1 Bft) 97,52 %
23.12.2015 04:20 1,4 C 94 % 1026,8 hPa 0,0 l/m 1,6 km/h (1 Bft) S-SW 210 0 min 0,000 mm 0,0 UV-I 0 W/m 0,5 C 1,4 C 3,2 km/h (1 Bft) 98,26 %
23.12.2015 04:25 1,4 C 95 % 1026,8 hPa 0,0 l/m 1,6 km/h (1 Bft) S-SW 210 0 min 0,000 mm 0,0 UV-I 0 W/m 0,7 C 1,4 C 3,2 km/h (1 Bft) 97,37 %
23.12.2015 04:30 1,4 C 94 % 1026,8 hPa 0,0 l/m 2,7 km/h (1 Bft) S-SW 210 0 min 0,000 mm 0,0 UV-I 0 W/m 0,5 C 1,4 C 3,2 km/h (1 Bft) 97,39 %
23.12.2015 04:35 1,3 C 94 % 1026,9 hPa 0,0 l/m 3,6 km/h (1 Bft) S-SW 210 0 min 0,000 mm 0,0 UV-I 0 W/m 0,4 C 1,3 C 4,8 km/h (1 Bft) 96,80 %
23.12.2015 04:40 1,2 C 95 % 1026,8 hPa 0,0 l/m 4,1 km/h (1 Bft) S-SW 212 0 min 0,000 mm 0,0 UV-I 0 W/m 0,5 C 1,2 C 4,8 km/h (1 Bft) 99,11 %
23.12.2015 04:45 1,2 C 95 % 1026,8 hPa 0,0 l/m 3,2 km/h (1 Bft) S-SW 213 0 min 0,000 mm 0,0 UV-I 0 W/m 0,5 C 1,2 C 4,8 km/h (1 Bft) 99,19 %
23.12.2015 04:50 1,4 C 95 % 1026,8 hPa 0,0 l/m 2,6 km/h (1 Bft) S-SW 213 0 min 0,000 mm 0,0 UV-I 0 W/m 0,7 C 1,4 C 3,2 km/h (1 Bft) 99,10 %
23.12.2015 04:55 1,3 C 94 % 1026,8 hPa 0,0 l/m 1,8 km/h (1 Bft) S-SW 212 0 min 0,000 mm 0,0 UV-I 0 W/m 0,4 C 1,3 C 3,2 km/h (1 Bft) 99,15 %
23.12.2015 05:00 1,2 C 95 % 1026,9 hPa 0,0 l/m 0,5 km/h (0 Bft) S-SW 212 0 min 0,000 mm 0,0 UV-I 0 W/m 0,5 C 1,2 C 3,2 km/h (1 Bft) 98,21 %
23.12.2015 05:05 1,6 C 95 % 1026,8 hPa 0,0 l/m 1,7 km/h (1 Bft) S-SW 212 0 min 0,000 mm 0,0 UV-I 0 W/m 0,9 C 1,6 C 3,2 km/h (1 Bft) 100,00 %
23.12.2015 05:10 1,8 C 94 % 1026,9 hPa 0,0 l/m 2,1 km/h (1 Bft) S 184 0 min 0,000 mm 0,0 UV-I 0 W/m 0,9 C 1,8 C 4,8 km/h (1 Bft) 100,00 %
23.12.2015 05:15 1,6 C 94 % 1026,8 hPa 0,0 l/m 2,2 km/h (1 Bft) S 184 0 min 0,000 mm 0,0 UV-I 0 W/m 0,7 C 1,6 C 4,8 km/h (1 Bft) 99,10 %
23.12.2015 05:20 1,6 C 94 % 1026,9 hPa 0,0 l/m 2,3 km/h (1 Bft) S 178 0 min 0,000 mm 0,0 UV-I 0 W/m 0,7 C 1,6 C 4,8 km/h (1 Bft) 99,13 %
23.12.2015 05:25 1,3 C 94 % 1026,9 hPa 0,0 l/m 3,0 km/h (1 Bft) S 179 0 min 0,000 mm 0,0 UV-I 0 W/m 0,4 C 1,3 C 4,8 km/h (1 Bft) 99,17 %
23.12.2015 05:30 1,2 C 94 % 1026,9 hPa 0,0 l/m 2,6 km/h (1 Bft) S 179 0 min 0,000 mm 0,0 UV-I 0 W/m 0,3 C 1,2 C 4,8 km/h (1 Bft) 97,50 %
23.12.2015 05:35 1,1 C 94 % 1027,0 hPa 0,0 l/m 3,4 km/h (1 Bft) S-SW 196 0 min 0,000 mm 0,0 UV-I 0 W/m 0,2 C 1,1 C 4,8 km/h (1 Bft) 98,21 %
23.12.2015 05:40 0,9 C 94 % 1027,0 hPa 0,0 l/m 3,4 km/h (1 Bft) S-SW 203 0 min 0,000 mm 0,0 UV-I 0 W/m 0,0 C 0,9 C 4,8 km/h (1 Bft) 100,00 %
23.12.2015 05:45 0,7 C 94 % 1027,1 hPa 0,0 l/m 3,5 km/h (1 Bft) S-SW 203 0 min 0,000 mm 0,0 UV-I 0 W/m -0,2 C 0,7 C 4,8 km/h (1 Bft) 98,17 %
23.12.2015 05:50 1,1 C 95 % 1027,1 hPa 0,0 l/m 4,1 km/h (1 Bft) S-SW 203 0 min 0,000 mm 0,0 UV-I 0 W/m 0,4 C 1,1 C 6,4 km/h (2 Bft) 96,61 %
23.12.2015 05:55 1,2 C 94 % 1027,1 hPa 0,0 l/m 2,9 km/h (1 Bft) S-SW 203 0 min 0,000 mm 0,0 UV-I 0 W/m 0,3 C 1,2 C 4,8 km/h (1 Bft) 100,00 %
23.12.2015 06:00 1,3 C 94 % 1027,2 hPa 0,0 l/m 1,7 km/h (1 Bft) S-SW 203 0 min 0,000 mm 0,0 UV-I 0 W/m 0,4 C 1,3 C 3,2 km/h (1 Bft) 98,35 %
23.12.2015 06:05 1,3 C 93 % 1027,3 hPa 0,0 l/m 2,7 km/h (1 Bft) S-SW 203 0 min 0,000 mm 0,0 UV-I 0 W/m 0,3 C 1,3 C 3,2 km/h (1 Bft) 99,08 %
23.12.2015 06:10 1,2 C 94 % 1027,3 hPa 0,0 l/m 1,9 km/h (1 Bft) S-SW 203 0 min 0,000 mm 0,0 UV-I 0 W/m 0,3 C 1,2 C 3,2 km/h (1 Bft) 99,17 %
23.12.2015 06:15 1,4 C 94 % 1027,4 hPa 0,0 l/m 0,6 km/h (0 Bft) S-SW 203 0 min 0,000 mm 0,0 UV-I 0 W/m 0,5 C 1,4 C 1,6 km/h (1 Bft) 99,06 %
23.12.2015 06:20 1,6 C 94 % 1027,5 hPa 0,0 l/m 2,0 km/h (1 Bft) S-SW 203 0 min 0,000 mm 0,0 UV-I 0 W/m 0,7 C 1,6 C 3,2 km/h (1 Bft) 97,64 %
23.12.2015 06:25 1,6 C 94 % 1027,5 hPa 0,0 l/m 2,6 km/h (1 Bft) S-SW 203 0 min 0,000 mm 0,0 UV-I 0 W/m 0,7 C 1,6 C 3,2 km/h (1 Bft) 94,87 %
23.12.2015 06:30 1,5 C 93 % 1027,5 hPa 0,0 l/m 3,2 km/h (1 Bft) S-SW 203 0 min 0,000 mm 0,0 UV-I 0 W/m 0,5 C 1,5 C 4,8 km/h (1 Bft) 97,46 %
23.12.2015 06:35 1,4 C 94 % 1027,6 hPa 0,0 l/m 3,6 km/h (1 Bft) S-SW 202 0 min 0,000 mm 0,0 UV-I 0 W/m 0,5 C 1,4 C 4,8 km/h (1 Bft) 98,26 %
23.12.2015 06:40 1,3 C 94 % 1027,7 hPa 0,0 l/m 3,3 km/h (1 Bft) S 182 0 min 0,000 mm 0,0 UV-I 0 W/m 0,4 C 1,3 C 4,8 km/h (1 Bft) 96,83 %
23.12.2015 06:45 1,3 C 94 % 1027,8 hPa 0,0 l/m 3,5 km/h (1 Bft) SW 217 0 min 0,000 mm 0,0 UV-I 0 W/m 0,4 C 1,3 C 6,4 km/h (2 Bft) 96,61 %
23.12.2015 06:50 1,3 C 94 % 1027,8 hPa 0,0 l/m 4,0 km/h (1 Bft) SW 219 0 min 0,000 mm 0,0 UV-I 0 W/m 0,4 C 1,3 C 6,4 km/h (2 Bft) 94,68 %
23.12.2015 07:00 1,3 C 93 % 1027,9 hPa 0,0 l/m 2,8 km/h (1 Bft) S-SW 205 0 min 0,000 mm 0,0 UV-I 0 W/m 0,3 C 1,3 C 3,2 km/h (1 Bft) 97,61 %
23.12.2015 07:05 1,2 C 94 % 1028,1 hPa 0,0 l/m 4,0 km/h (1 Bft) SW 216 0 min 0,000 mm 0,0 UV-I 0 W/m 0,3 C 1,2 C 6,4 km/h (2 Bft) 97,50 %
23.12.2015 07:10 1,2 C 94 % 1028,1 hPa 0,0 l/m 4,4 km/h (1 Bft) SW 217 0 min 0,000 mm 0,0 UV-I 0 W/m 0,3 C 1,2 C 6,4 km/h (2 Bft) 98,26 %
23.12.2015 07:15 1,3 C 94 % 1028,2 hPa 0,0 l/m 3,2 km/h (1 Bft) SW 225 0 min 0,000 mm 0,0 UV-I 0 W/m 0,4 C 1,3 C 4,8 km/h (1 Bft) 100,00 %
23.12.2015 07:20 1,2 C 94 % 1028,3 hPa 0,0 l/m 2,3 km/h (1 Bft) SW 225 0 min 0,000 mm 0,0 UV-I 0 W/m 0,3 C 1,2 C 3,2 km/h (1 Bft) 100,00 %
23.12.2015 07:25 1,3 C 94 % 1028,4 hPa 0,0 l/m 1,6 km/h (1 Bft) SW 225 0 min 0,000 mm 0,0 UV-I 0 W/m 0,4 C 1,3 C 3,2 km/h (1 Bft) 98,17 %
23.12.2015 07:30 1,4 C 94 % 1028,5 hPa 0,0 l/m 3,1 km/h (1 Bft) SW 226 0 min 0,000 mm 0,0 UV-I 0 W/m 0,5 C 1,4 C 4,8 km/h (1 Bft) 99,12 %
23.12.2015 07:35 1,6 C 93 % 1028,6 hPa 0,0 l/m 3,9 km/h (1 Bft) SW 226 0 min 0,000 mm 0,0 UV-I 0 W/m 0,6 C 1,6 C 4,8 km/h (1 Bft) 100,00 %
23.12.2015 07:40 1,5 C 93 % 1028,7 hPa 0,0 l/m 4,7 km/h (1 Bft) SW 221 0 min 0,000 mm 0,0 UV-I 0 W/m 0,5 C 1,5 C 6,4 km/h (2 Bft) 100,00 %
23.12.2015 07:45 1,4 C 93 % 1028,8 hPa 0,0 l/m 5,2 km/h (1 Bft) SW 217 0 min 0,000 mm 0,0 UV-I 0 W/m 0,4 C 1,4 C 8,0 km/h (2 Bft) 100,00 %
23.12.2015 07:50 1,4 C 93 % 1028,8 hPa 0,0 l/m 4,2 km/h (1 Bft) S-SW 196 0 min 0,000 mm 0,0 UV-I 4 W/m 0,4 C 1,4 C 8,0 km/h (2 Bft) 100,00 %
23.12.2015 07:55 1,4 C 93 % 1028,9 hPa 0,0 l/m 4,3 km/h (1 Bft) SW 236 0 min 0,000 mm 0,0 UV-I 5 W/m 0,4 C 1,4 C 6,4 km/h (2 Bft) 97,37 %
23.12.2015 08:00 1,6 C 94 % 1029,0 hPa 0,0 l/m 4,3 km/h (1 Bft) SW 219 0 min 0,000 mm 0,0 UV-I 7 W/m 0,7 C 1,6 C 8,0 km/h (2 Bft) 99,19 %
23.12.2015 08:05 1,6 C 92 % 1029,1 hPa 0,0 l/m 4,1 km/h (1 Bft) S-SW 198 5 min 0,000 mm 0,0 UV-I 10 W/m 0,4 C 1,6 C 8,0 km/h (2 Bft) 99,08 %
23.12.2015 08:10 1,7 C 93 % 1029,3 hPa 0,0 l/m 4,5 km/h (1 Bft) SW 235 0 min 0,000 mm 0,0 UV-I 11 W/m 0,7 C 1,7 C 8,0 km/h (2 Bft) 97,62 %
23.12.2015 08:15 1,8 C 92 % 1029,4 hPa 0,0 l/m 3,6 km/h (1 Bft) S-SW 205 0 min 0,000 mm 0,0 UV-I 12 W/m 0,6 C 1,8 C 8,0 km/h (2 Bft) 100,00 %
23.12.2015 08:20 1,8 C 92 % 1029,5 hPa 0,0 l/m 3,1 km/h (1 Bft) S 182 0 min 0,000 mm 0,0 UV-I 12 W/m 0,6 C 1,8 C 8,0 km/h (2 Bft) 99,08 %
23.12.2015 08:25 1,8 C 92 % 1029,5 hPa 0,0 l/m 3,9 km/h (1 Bft) S 173 0 min 0,000 mm 0,0 UV-I 12 W/m 0,6 C 1,8 C 8,0 km/h (2 Bft) 100,00 %
23.12.2015 08:30 1,9 C 92 % 1029,6 hPa 0,0 l/m 3,9 km/h (1 Bft) S 186 0 min 0,000 mm 0,0 UV-I 14 W/m 0,7 C 1,9 C 8,0 km/h (2 Bft) 100,00 %
23.12.2015 08:35 2,0 C 92 % 1029,6 hPa 0,0 l/m 2,6 km/h (1 Bft) S 178 0 min 0,000 mm 0,0 UV-I 17 W/m 0,8 C 2,0 C 4,8 km/h (1 Bft) 100,00 %
23.12.2015 08:40 2,3 C 92 % 1029,7 hPa 0,0 l/m 2,5 km/h (1 Bft) S 187 0 min 0,000 mm 0,0 UV-I 23 W/m 1,1 C 2,3 C 6,4 km/h (2 Bft) 100,00 %
23.12.2015 08:45 2,4 C 91 % 1029,9 hPa 0,0 l/m 4,9 km/h (1 Bft) S 179 0 min 0,000 mm 0,0 UV-I 35 W/m 1,1 C 2,4 C 8,0 km/h (2 Bft) 97,32 %
23.12.2015 08:50 2,1 C 92 % 1030,0 hPa 0,0 l/m 6,1 km/h (2 Bft) S-SW 204 0 min 0,000 mm 0,0 UV-I 60 W/m 0,9 C 2,1 C 9,7 km/h (2 Bft) 97,56 %
23.12.2015 08:55 2,2 C 92 % 1030,0 hPa 0,0 l/m 4,8 km/h (1 Bft) S-SW 194 5 min 0,000 mm 0,0 UV-I 71 W/m 1,0 C 2,2 C 8,0 km/h (2 Bft) 96,69 %
23.12.2015 09:00 2,3 C 92 % 1030,0 hPa 0,0 l/m 6,5 km/h (2 Bft) S-SW 202 5 min 0,025 mm 0,0 UV-I 79 W/m 1,1 C 2,2 C 11,3 km/h (2 Bft) 97,39 %
23.12.2015 09:05 2,4 C 92 % 1030,1 hPa 0,0 l/m 3,2 km/h (1 Bft) S 182 5 min 0,000 mm 0,0 UV-I 88 W/m 1,2 C 2,4 C 8,0 km/h (2 Bft) 96,67 %
23.12.2015 09:10 2,6 C 92 % 1030,3 hPa 0,0 l/m 2,8 km/h (1 Bft) S 178 5 min 0,000 mm 0,0 UV-I 90 W/m 1,4 C 2,6 C 9,7 km/h (2 Bft) 96,23 %
23.12.2015 09:15 2,8 C 91 % 1030,4 hPa 0,0 l/m 6,2 km/h (2 Bft) S-SW 192 0 min 0,000 mm 0,0 UV-I 79 W/m 1,5 C 2,8 C 11,3 km/h (2 Bft) 98,31 %
23.12.2015 09:20 3,1 C 91 % 1030,4 hPa 0,0 l/m 6,4 km/h (2 Bft) S 184 0 min 0,000 mm 0,0 UV-I 71 W/m 1,8 C 3,1 C 9,7 km/h (2 Bft) 99,15 %
23.12.2015 09:25 3,2 C 90 % 1030,5 hPa 0,0 l/m 5,3 km/h (1 Bft) S-SW 204 0 min 0,000 mm 0,0 UV-I 85 W/m 1,7 C 3,2 C 8,0 km/h (2 Bft) 99,17 %
23.12.2015 09:30 3,2 C 90 % 1030,6 hPa 0,0 l/m 3,8 km/h (1 Bft) S-SW 201 5 min 0,000 mm 0,0 UV-I 119 W/m 1,7 C 3,2 C 6,4 km/h (2 Bft) 100,00 %
23.12.2015 09:35 3,4 C 90 % 1030,6 hPa 0,0 l/m 5,3 km/h (1 Bft) S-SW 196 5 min 0,000 mm 0,0 UV-I 133 W/m 1,9 C 3,4 C 8,0 km/h (2 Bft) 100,00 %
23.12.2015 09:40 3,9 C 88 % 1030,6 hPa 0,0 l/m 6,5 km/h (2 Bft) S-SW 207 5 min 0,000 mm 0,0 UV-I 144 W/m 2,1 C 3,8 C 11,3 km/h (2 Bft) 100,00 %
23.12.2015 09:45 4,3 C 86 % 1030,6 hPa 0,0 l/m 7,3 km/h (2 Bft) SW 223 5 min 0,000 mm 0,0 UV-I 156 W/m 2,2 C 3,5 C 11,3 km/h (2 Bft) 98,33 %
23.12.2015 09:50 4,6 C 85 % 1030,6 hPa 0,0 l/m 6,5 km/h (2 Bft) W-SW 240 5 min 0,000 mm 0,0 UV-I 165 W/m 2,3 C 4,5 C 9,7 km/h (2 Bft) 100,00 %
23.12.2015 09:55 4,6 C 85 % 1030,7 hPa 0,0 l/m 6,4 km/h (2 Bft) SW 225 5 min 0,000 mm 0,0 UV-I 175 W/m 2,3 C 4,6 C 9,7 km/h (2 Bft) 99,10 %
23.12.2015 10:00 4,8 C 85 % 1030,8 hPa 0,0 l/m 6,5 km/h (2 Bft) SW 229 5 min 0,000 mm 0,0 UV-I 182 W/m 2,5 C 4,7 C 11,3 km/h (2 Bft) 99,15 %
23.12.2015 10:05 5,2 C 85 % 1030,8 hPa 0,0 l/m 5,5 km/h (1 Bft) W-SW 251 5 min 0,051 mm 0,0 UV-I 189 W/m 2,9 C 5,2 C 11,3 km/h (2 Bft) 100,00 %
23.12.2015 10:10 5,5 C 82 % 1030,8 hPa 0,0 l/m 8,1 km/h (2 Bft) W-SW 247 5 min 0,000 mm 0,0 UV-I 186 W/m 2,7 C 4,0 C 12,9 km/h (3 Bft) 99,19 %
23.12.2015 10:15 5,8 C 80 % 1030,8 hPa 0,0 l/m 9,5 km/h (2 Bft) W-SW 246 5 min 0,000 mm 0,0 UV-I 192 W/m 2,6 C 3,3 C 17,7 km/h (3 Bft) 99,13 %
23.12.2015 10:20 6,2 C 79 % 1030,9 hPa 0,0 l/m 11,6 km/h (2 Bft) W 267 5 min 0,000 mm 0,1 UV-I 210 W/m 2,8 C 2,4 C 16,1 km/h (3 Bft) 99,17 %
23.12.2015 10:25 6,5 C 78 % 1030,9 hPa 0,0 l/m 9,6 km/h (2 Bft) W 266 5 min 0,000 mm 0,5 UV-I 216 W/m 2,9 C 4,0 C 16,1 km/h (3 Bft) 99,08 %
23.12.2015 10:30 6,8 C 77 % 1030,8 hPa 0,0 l/m 11,5 km/h (2 Bft) W 259 5 min 0,000 mm 0,5 UV-I 221 W/m 3,1 C 3,1 C 17,7 km/h (3 Bft) 100,00 %
23.12.2015 10:35 7,1 C 76 % 1030,9 hPa 0,0 l/m 12,1 km/h (2 Bft) W 263 5 min 0,000 mm 0,5 UV-I 226 W/m 3,2 C 3,1 C 17,7 km/h (3 Bft) 98,21 %
23.12.2015 10:40 7,3 C 75 % 1031,0 hPa 0,0 l/m 10,7 km/h (2 Bft) W 266 5 min 0,000 mm 0,5 UV-I 230 W/m 3,2 C 4,2 C 16,1 km/h (3 Bft) 99,17 %
23.12.2015 10:45 7,6 C 75 % 1031,0 hPa 0,0 l/m 9,8 km/h (2 Bft) W-SW 255 5 min 0,000 mm 0,5 UV-I 235 W/m 3,5 C 5,1 C 14,5 km/h (3 Bft) 98,43 %
23.12.2015 10:50 7,8 C 74 % 1031,0 hPa 0,0 l/m 10,1 km/h (2 Bft) W-SW 252 5 min 0,000 mm 0,6 UV-I 240 W/m 3,5 C 5,1 C 16,1 km/h (3 Bft) 97,30 %
23.12.2015 10:55 7,9 C 74 % 1031,0 hPa 0,0 l/m 6,4 km/h (2 Bft) W 259 5 min 0,000 mm 0,6 UV-I 245 W/m 3,6 C 7,9 C 11,3 km/h (2 Bft) 98,26 %
23.12.2015 11:00 8,2 C 74 % 1031,0 hPa 0,0 l/m 6,9 km/h (2 Bft) W 260 5 min 0,000 mm 0,6 UV-I 250 W/m 3,8 C 7,8 C 14,5 km/h (3 Bft) 96,52 %
23.12.2015 11:05 8,3 C 74 % 1031,0 hPa 0,0 l/m 3,7 km/h (1 Bft) W-NW 291 5 min 0,102 mm 0,6 UV-I 255 W/m 3,9 C 8,3 C 9,7 km/h (2 Bft) 97,30 %
23.12.2015 11:10 8,4 C 74 % 1031,0 hPa 0,0 l/m 2,3 km/h (1 Bft) W-NW 290 5 min 0,000 mm 0,6 UV-I 259 W/m 4,0 C 8,4 C 6,4 km/h (2 Bft) 97,69 %
23.12.2015 11:15 8,3 C 76 % 1030,9 hPa 0,0 l/m 2,9 km/h (1 Bft) NW 305 5 min 0,000 mm 0,6 UV-I 263 W/m 4,3 C 8,3 C 6,4 km/h (2 Bft) 99,11 %
23.12.2015 11:20 7,9 C 78 % 1030,8 hPa 0,0 l/m 1,9 km/h (1 Bft) W-NW 298 5 min 0,000 mm 0,7 UV-I 267 W/m 4,3 C 7,9 C 6,4 km/h (2 Bft) 99,15 %
23.12.2015 11:25 7,9 C 78 % 1030,8 hPa 0,0 l/m 1,6 km/h (1 Bft) W-NW 294 5 min 0,000 mm 0,7 UV-I 269 W/m 4,3 C 7,9 C 3,2 km/h (1 Bft) 98,43 %
23.12.2015 11:30 8,1 C 79 % 1030,9 hPa 0,0 l/m 1,1 km/h (1 Bft) NW 309 5 min 0,000 mm 0,7 UV-I 271 W/m 4,7 C 8,1 C 3,2 km/h (1 Bft) 100,00 %
23.12.2015 11:35 8,1 C 80 % 1030,9 hPa 0,0 l/m 1,1 km/h (1 Bft) NW 317 5 min 0,000 mm 0,7 UV-I 272 W/m 4,9 C 8,1 C 3,2 km/h (1 Bft) 99,15 %
23.12.2015 11:40 8,1 C 79 % 1030,8 hPa 0,0 l/m 0,8 km/h (0 Bft) NW 317 5 min 0,000 mm 0,7 UV-I 273 W/m 4,7 C 8,1 C 3,2 km/h (1 Bft) 100,00 %
23.12.2015 11:45 8,3 C 76 % 1030,8 hPa 0,0 l/m 1,2 km/h (1 Bft) NW 312 5 min 0,000 mm 0,7 UV-I 274 W/m 4,3 C 8,3 C 3,2 km/h (1 Bft) 100,00 %
23.12.2015 11:50 8,2 C 77 % 1030,9 hPa 0,0 l/m 1,0 km/h (0 Bft) W-NW 298 5 min 0,000 mm 0,7 UV-I 276 W/m 4,4 C 8,2 C 6,4 km/h (2 Bft) 100,00 %
23.12.2015 11:55 8,4 C 78 % 1030,8 hPa 0,0 l/m 0,8 km/h (0 Bft) W-NW 300 5 min 0,000 mm 0,7 UV-I 278 W/m 4,8 C 8,4 C 3,2 km/h (1 Bft) 99,12 %
23.12.2015 12:00 8,6 C 77 % 1030,8 hPa 0,0 l/m 1,7 km/h (1 Bft) N-NW 345 5 min 0,127 mm 0,7 UV-I 279 W/m 4,8 C 8,6 C 6,4 km/h (2 Bft) 100,00 %
23.12.2015 12:05 8,6 C 77 % 1030,7 hPa 0,0 l/m 1,4 km/h (1 Bft) N 5 5 min 0,000 mm 0,7 UV-I 279 W/m 4,8 C 8,6 C 3,2 km/h (1 Bft) 97,58 %
23.12.2015 12:10 8,5 C 77 % 1030,7 hPa 0,0 l/m 1,6 km/h (1 Bft) W-SW 256 5 min 0,000 mm 0,7 UV-I 280 W/m 4,7 C 8,5 C 6,4 km/h (2 Bft) 99,12 %
23.12.2015 12:15 8,7 C 77 % 1030,7 hPa 0,0 l/m 0,4 km/h (0 Bft) W-SW 256 5 min 0,000 mm 0,7 UV-I 279 W/m 4,9 C 8,7 C 1,6 km/h (1 Bft) 99,19 %
23.12.2015 12:20 8,7 C 76 % 1030,6 hPa 0,0 l/m 0,8 km/h (0 Bft) N 5 5 min 0,000 mm 0,7 UV-I 279 W/m 4,7 C 8,7 C 3,2 km/h (1 Bft) 97,39 %
23.12.2015 12:25 8,8 C 77 % 1030,6 hPa 0,0 l/m 0,8 km/h (0 Bft) N 11 5 min 0,000 mm 0,7 UV-I 280 W/m 5,0 C 8,8 C 3,2 km/h (1 Bft) 97,37 %
23.12.2015 12:30 8,8 C 77 % 1030,6 hPa 0,0 l/m 2,4 km/h (1 Bft) W 279 5 min 0,000 mm 0,7 UV-I 279 W/m 5,0 C 8,8 C 4,8 km/h (1 Bft) 97,52 %
23.12.2015 12:35 8,8 C 75 % 1030,6 hPa 0,0 l/m 1,7 km/h (1 Bft) W-SW 240 5 min 0,000 mm 0,7 UV-I 278 W/m 4,6 C 8,8 C 6,4 km/h (2 Bft) 97,32 %
23.12.2015 12:40 9,1 C 75 % 1030,5 hPa 0,0 l/m 1,3 km/h (1 Bft) NW 315 5 min 0,000 mm 0,7 UV-I 277 W/m 4,9 C 9,1 C 4,8 km/h (1 Bft) 97,37 %
23.12.2015 12:45 9,3 C 78 % 1030,5 hPa 0,0 l/m 0,4 km/h (0 Bft) NW 324 5 min 0,000 mm 0,7 UV-I 274 W/m 5,7 C 9,3 C 3,2 km/h (1 Bft) 98,39 %
23.12.2015 12:50 9,3 C 73 % 1030,4 hPa 0,0 l/m 1,0 km/h (0 Bft) NW 324 5 min 0,000 mm 0,7 UV-I 272 W/m 4,7 C 9,3 C 4,8 km/h (1 Bft) 100,00 %
23.12.2015 12:55 9,4 C 74 % 1030,2 hPa 0,0 l/m 1,4 km/h (1 Bft) NW 304 5 min 0,000 mm 0,7 UV-I 269 W/m 5,0 C 9,4 C 4,8 km/h (1 Bft) 99,15 %
23.12.2015 13:00 9,7 C 73 % 1030,1 hPa 0,0 l/m 0,5 km/h (0 Bft) NW 304 5 min 0,127 mm 0,7 UV-I 265 W/m 5,1 C 9,7 C 1,6 km/h (1 Bft) 100,00 %
23.12.2015 13:05 10,2 C 72 % 1030,1 hPa 0,0 l/m 0,4 km/h (0 Bft) W-NW 302 5 min 0,000 mm 0,7 UV-I 263 W/m 5,4 C 10,2 C 3,2 km/h (1 Bft) 99,13 %
23.12.2015 13:10 10,3 C 71 % 1030,0 hPa 0,0 l/m 1,9 km/h (1 Bft) W-SW 253 5 min 0,000 mm 0,6 UV-I 259 W/m 5,3 C 10,3 C 4,8 km/h (1 Bft) 100,00 %
23.12.2015 13:15 10,4 C 71 % 1030,0 hPa 0,0 l/m 2,6 km/h (1 Bft) W-SW 253 5 min 0,000 mm 0,6 UV-I 255 W/m 5,4 C 10,4 C 4,8 km/h (1 Bft) 97,17 %
23.12.2015 13:20 10,6 C 71 % 1029,9 hPa 0,0 l/m 3,0 km/h (1 Bft) W-SW 239 5 min 0,000 mm 0,6 UV-I 250 W/m 5,6 C 10,6 C 4,8 km/h (1 Bft) 99,06 %
23.12.2015 13:25 10,8 C 72 % 1029,9 hPa 0,0 l/m 2,2 km/h (1 Bft) W-SW 238 5 min 0,000 mm 0,6 UV-I 245 W/m 6,0 C 10,8 C 6,4 km/h (2 Bft) 99,26 %
23.12.2015 13:30 10,8 C 72 % 1029,8 hPa 0,0 l/m 0,5 km/h (0 Bft) W-SW 238 5 min 0,000 mm 0,6 UV-I 239 W/m 6,0 C 10,8 C 1,6 km/h (1 Bft) 99,19 %
23.12.2015 13:35 10,8 C 73 % 1029,8 hPa 0,0 l/m 0,1 km/h (0 Bft) W-SW 238 5 min 0,000 mm 0,6 UV-I 235 W/m 6,2 C 10,8 C 1,6 km/h (1 Bft) 100,00 %
23.12.2015 13:45 10,8 C 73 % 1029,9 hPa 0,0 l/m 1,4 km/h (1 Bft) W-NW 293 10 min 0,000 mm 0,5 UV-I 216 W/m 6,2 C 10,8 C 4,8 km/h (1 Bft) 98,28 %
23.12.2015 13:50 10,7 C 72 % 1029,8 hPa 0,0 l/m 0,8 km/h (0 Bft) W-NW 297 5 min 0,000 mm 0,5 UV-I 209 W/m 5,9 C 10,7 C 3,2 km/h (1 Bft) 97,67 %
23.12.2015 13:55 10,7 C 71 % 1029,7 hPa 0,0 l/m 0,7 km/h (0 Bft) W-NW 298 5 min 0,000 mm 0,1 UV-I 202 W/m 5,7 C 10,7 C 1,6 km/h (1 Bft) 96,43 %
23.12.2015 14:00 10,7 C 73 % 1029,7 hPa 0,0 l/m 0,4 km/h (0 Bft) W-NW 298 5 min 0,127 mm 0,0 UV-I 194 W/m 6,1 C 10,7 C 1,6 km/h (1 Bft) 97,67 %
23.12.2015 14:05 10,8 C 74 % 1029,7 hPa 0,0 l/m 0,2 km/h (0 Bft) W-NW 298 5 min 0,000 mm 0,0 UV-I 187 W/m 6,4 C 10,8 C 1,6 km/h (1 Bft) 97,32 %
23.12.2015 14:10 11,0 C 71 % 1029,6 hPa 0,0 l/m 0,3 km/h (0 Bft) W-NW 298 5 min 0,000 mm 0,0 UV-I 178 W/m 5,9 C 11,0 C 1,6 km/h (1 Bft) 98,29 %
23.12.2015 14:15 11,0 C 70 % 1029,6 hPa 0,0 l/m 0,4 km/h (0 Bft) W-NW 298 5 min 0,000 mm 0,0 UV-I 170 W/m 5,7 C 11,0 C 1,6 km/h (1 Bft) 97,39 %
23.12.2015 14:20 11,0 C 71 % 1029,6 hPa 0,0 l/m 0,4 km/h (0 Bft) W-NW 298 5 min 0,000 mm 0,0 UV-I 161 W/m 5,9 C 11,0 C 3,2 km/h (1 Bft) 98,31 %
23.12.2015 14:25 11,1 C 72 % 1029,6 hPa 0,0 l/m 2,0 km/h (1 Bft) W-NW 298 5 min 0,000 mm 0,0 UV-I 151 W/m 6,2 C 11,1 C 3,2 km/h (1 Bft) 100,00 %
23.12.2015 14:30 11,3 C 72 % 1029,7 hPa 0,0 l/m 0,9 km/h (0 Bft) W-NW 298 5 min 0,000 mm 0,0 UV-I 142 W/m 6,4 C 11,3 C 3,2 km/h (1 Bft) 100,00 %
23.12.2015 14:35 11,3 C 72 % 1029,6 hPa 0,0 l/m 2,3 km/h (1 Bft) N-NO 15 5 min 0,000 mm 0,0 UV-I 133 W/m 6,4 C 11,3 C 3,2 km/h (1 Bft) 100,00 %
23.12.2015 14:40 11,2 C 71 % 1029,6 hPa 0,0 l/m 3,0 km/h (1 Bft) NO 40 5 min 0,000 mm 0,0 UV-I 124 W/m 6,1 C 11,2 C 4,8 km/h (1 Bft) 98,20 %
23.12.2015 14:45 10,8 C 74 % 1029,8 hPa 0,0 l/m 2,4 km/h (1 Bft) NO 48 5 min 0,000 mm 0,0 UV-I 115 W/m 6,4 C 10,8 C 4,8 km/h (1 Bft) 99,15 %
23.12.2015 14:50 10,3 C 78 % 1029,6 hPa 0,0 l/m 2,9 km/h (1 Bft) O 79 5 min 0,000 mm 0,0 UV-I 106 W/m 6,6 C 10,3 C 4,8 km/h (1 Bft) 99,13 %
23.12.2015 14:55 10,4 C 76 % 1029,7 hPa 0,0 l/m 3,0 km/h (1 Bft) O-NO 69 5 min 0,000 mm 0,0 UV-I 96 W/m 6,4 C 10,4 C 4,8 km/h (1 Bft) 99,19 %
23.12.2015 15:00 10,2 C 78 % 1029,7 hPa 0,0 l/m 5,4 km/h (1 Bft) NO 39 5 min 0,076 mm 0,0 UV-I 88 W/m 6,5 C 10,2 C 8,0 km/h (2 Bft) 98,26 %
23.12.2015 15:05 10,6 C 76 % 1029,8 hPa 0,0 l/m 5,1 km/h (1 Bft) O-NO 57 5 min 0,000 mm 0,0 UV-I 78 W/m 6,5 C 10,6 C 6,4 km/h (2 Bft) 98,29 %
23.12.2015 15:10 10,2 C 77 % 1029,8 hPa 0,0 l/m 4,8 km/h (1 Bft) N-NO 26 5 min 0,000 mm 0,0 UV-I 70 W/m 6,4 C 10,2 C 8,0 km/h (2 Bft) 99,19 %
23.12.2015 15:15 10,1 C 76 % 1029,7 hPa 0,0 l/m 4,9 km/h (1 Bft) NO 44 0 min 0,000 mm 0,0 UV-I 62 W/m 6,1 C 10,1 C 6,4 km/h (2 Bft) 99,13 %
23.12.2015 15:20 9,9 C 77 % 1029,8 hPa 0,0 l/m 4,2 km/h (1 Bft) NO 38 0 min 0,000 mm 0,0 UV-I 53 W/m 6,1 C 9,9 C 6,4 km/h (2 Bft) 99,07 %
23.12.2015 15:25 9,7 C 77 % 1029,8 hPa 0,0 l/m 5,4 km/h (1 Bft) NO 44 0 min 0,000 mm 0,0 UV-I 45 W/m 5,9 C 9,7 C 9,7 km/h (2 Bft) 99,19 %
23.12.2015 15:30 9,6 C 78 % 1030,0 hPa 0,0 l/m 6,5 km/h (2 Bft) N-NO 22 0 min 0,000 mm 0,0 UV-I 38 W/m 6,0 C 9,6 C 8,0 km/h (2 Bft) 97,50 %
23.12.2015 15:35 9,3 C 78 % 1030,0 hPa 0,0 l/m 4,0 km/h (1 Bft) NO 34 0 min 0,000 mm 0,0 UV-I 30 W/m 5,7 C 9,3 C 8,0 km/h (2 Bft) 97,46 %
23.12.2015 15:40 9,3 C 77 % 1030,1 hPa 0,0 l/m 4,9 km/h (1 Bft) N-NO 24 0 min 0,000 mm 0,0 UV-I 24 W/m 5,5 C 9,3 C 8,0 km/h (2 Bft) 95,41 %
23.12.2015 15:45 9,1 C 78 % 1030,1 hPa 0,0 l/m 4,6 km/h (1 Bft) N-NO 29 0 min 0,000 mm 0,0 UV-I 19 W/m 5,5 C 9,1 C 8,0 km/h (2 Bft) 97,50 %
23.12.2015 15:50 8,9 C 79 % 1030,1 hPa 0,0 l/m 4,7 km/h (1 Bft) N-NO 22 0 min 0,000 mm 0,0 UV-I 17 W/m 5,5 C 8,9 C 6,4 km/h (2 Bft) 97,09 %
23.12.2015 15:55 8,9 C 78 % 1030,1 hPa 0,0 l/m 3,0 km/h (1 Bft) NO 53 0 min 0,000 mm 0,0 UV-I 15 W/m 5,3 C 8,9 C 6,4 km/h (2 Bft) 96,85 %
23.12.2015 16:00 9,0 C 78 % 1030,1 hPa 0,0 l/m 3,7 km/h (1 Bft) NO 46 5 min 0,025 mm 0,0 UV-I 12 W/m 5,4 C 9,0 C 4,8 km/h (1 Bft) 98,41 %
23.12.2015 16:05 8,9 C 77 % 1030,3 hPa 0,0 l/m 4,2 km/h (1 Bft) N-NO 32 0 min 0,000 mm 0,0 UV-I 11 W/m 5,1 C 8,9 C 6,4 km/h (2 Bft) 99,08 %
23.12.2015 16:10 8,7 C 78 % 1030,3 hPa 0,0 l/m 4,1 km/h (1 Bft) N-NO 30 0 min 0,000 mm 0,0 UV-I 8 W/m 5,1 C 8,7 C 6,4 km/h (2 Bft) 99,17 %
23.12.2015 16:15 7,7 C 83 % 1030,4 hPa 0,0 l/m 2,0 km/h (1 Bft) NO 42 0 min 0,000 mm 0,0 UV-I 6 W/m 5,0 C 7,7 C 4,8 km/h (1 Bft) 99,19 %
23.12.2015 16:20 7,3 C 85 % 1030,4 hPa 0,0 l/m 0,2 km/h (0 Bft) NO 42 0 min 0,000 mm 0,0 UV-I 3 W/m 4,9 C 7,3 C 1,6 km/h (1 Bft) 100,00 %
23.12.2015 16:25 7,1 C 86 % 1030,5 hPa 0,0 l/m 0,0 km/h (0 Bft) NO 42 0 min 0,000 mm 0,0 UV-I 0 W/m 4,9 C 7,1 C 0,0 km/h (0 Bft) 100,00 %
23.12.2015 16:30 7,2 C 86 % 1030,5 hPa 0,0 l/m 0,0 km/h (0 Bft) NO 42 0 min 0,000 mm 0,0 UV-I 0 W/m 5,0 C 7,2 C 1,6 km/h (1 Bft) 100,00 %
23.12.2015 16:35 6,6 C 88 % 1030,5 hPa 0,0 l/m 0,9 km/h (0 Bft) NO 42 0 min 0,000 mm 0,0 UV-I 0 W/m 4,8 C 6,6 C 3,2 km/h (1 Bft) 100,00 %
23.12.2015 16:40 6,4 C 87 % 1030,5 hPa 0,0 l/m 2,5 km/h (1 Bft) O-NO 63 0 min 0,000 mm 0,0 UV-I 0 W/m 4,4 C 6,4 C 4,8 km/h (1 Bft) 99,12 %
23.12.2015 16:45 6,3 C 87 % 1030,5 hPa 0,0 l/m 2,2 km/h (1 Bft) O-NO 65 0 min 0,000 mm 0,0 UV-I 0 W/m 4,3 C 6,3 C 3,2 km/h (1 Bft) 98,21 %
23.12.2015 16:50 6,3 C 89 % 1030,5 hPa 0,0 l/m 1,7 km/h (1 Bft) O-SO 110 0 min 0,000 mm 0,0 UV-I 0 W/m 4,6 C 6,3 C 4,8 km/h (1 Bft) 99,21 %
23.12.2015 16:55 6,3 C 89 % 1030,5 hPa 0,0 l/m 1,4 km/h (1 Bft) O-SO 110 0 min 0,000 mm 0,0 UV-I 0 W/m 4,6 C 6,3 C 3,2 km/h (1 Bft) 98,17 %
23.12.2015 17:00 6,3 C 88 % 1030,6 hPa 0,0 l/m 0,8 km/h (0 Bft) O-SO 114 0 min 0,000 mm 0,0 UV-I 0 W/m 4,5 C 6,3 C 3,2 km/h (1 Bft) 99,13 %
23.12.2015 17:05 6,2 C 88 % 1030,5 hPa 0,0 l/m 0,5 km/h (0 Bft) O-SO 114 0 min 0,000 mm 0,0 UV-I 0 W/m 4,4 C 6,2 C 3,2 km/h (1 Bft) 99,15 %
23.12.2015 17:10 5,9 C 88 % 1030,7 hPa 0,0 l/m 0,4 km/h (0 Bft) O-SO 114 0 min 0,000 mm 0,0 UV-I 0 W/m 4,1 C 5,9 C 1,6 km/h (1 Bft) 100,00 %
23.12.2015 17:15 6,1 C 89 % 1030,8 hPa 0,0 l/m 0,9 km/h (0 Bft) O-NO 74 0 min 0,000 mm 0,0 UV-I 0 W/m 4,4 C 6,1 C 3,2 km/h (1 Bft) 100,00 %
23.12.2015 17:20 5,9 C 88 % 1030,9 hPa 0,0 l/m 1,1 km/h (1 Bft) O-NO 65 0 min 0,000 mm 0,0 UV-I 0 W/m 4,1 C 5,9 C 3,2 km/h (1 Bft) 99,17 %
23.12.2015 17:25 5,7 C 90 % 1030,9 hPa 0,0 l/m 0,7 km/h (0 Bft) O-NO 61 0 min 0,000 mm 0,0 UV-I 0 W/m 4,2 C 5,7 C 3,2 km/h (1 Bft) 99,15 %
23.12.2015 17:30 5,4 C 90 % 1031,0 hPa 0,0 l/m 0,6 km/h (0 Bft) O 93 0 min 0,000 mm 0,0 UV-I 0 W/m 3,9 C 5,4 C 3,2 km/h (1 Bft) 96,49 %
23.12.2015 17:35 5,6 C 90 % 1031,0 hPa 0,0 l/m 3,6 km/h (1 Bft) SO 134 0 min 0,000 mm 0,0 UV-I 0 W/m 4,1 C 5,6 C 6,4 km/h (2 Bft) 97,32 %
23.12.2015 17:40 5,5 C 90 % 1030,9 hPa 0,0 l/m 4,3 km/h (1 Bft) SO 132 0 min 0,000 mm 0,0 UV-I 0 W/m 4,0 C 5,5 C 6,4 km/h (2 Bft) 98,31 %
23.12.2015 17:45 5,3 C 91 % 1031,0 hPa 0,0 l/m 1,8 km/h (1 Bft) SO 134 0 min 0,000 mm 0,0 UV-I 0 W/m 4,0 C 5,3 C 4,8 km/h (1 Bft) 97,37 %
23.12.2015 17:50 5,6 C 91 % 1031,0 hPa 0,0 l/m 1,5 km/h (1 Bft) S-SO 157 0 min 0,000 mm 0,0 UV-I 0 W/m 4,2 C 5,6 C 3,2 km/h (1 Bft) 95,87 %
23.12.2015 17:55 5,7 C 90 % 1031,0 hPa 0,0 l/m 2,1 km/h (1 Bft) S-SO 153 0 min 0,000 mm 0,0 UV-I 0 W/m 4,2 C 5,7 C 4,8 km/h (1 Bft) 97,52 %
23.12.2015 18:00 5,8 C 90 % 1031,0 hPa 0,0 l/m 4,0 km/h (1 Bft) S-SO 161 0 min 0,000 mm 0,0 UV-I 0 W/m 4,3 C 5,8 C 8,0 km/h (2 Bft) 96,58 %
23.12.2015 18:05 5,7 C 90 % 1031,1 hPa 0,0 l/m 0,9 km/h (0 Bft) S-SO 161 0 min 0,000 mm 0,0 UV-I 0 W/m 4,2 C 5,7 C 3,2 km/h (1 Bft) 98,31 %
23.12.2015 18:10 5,6 C 89 % 1031,3 hPa 0,0 l/m 1,4 km/h (1 Bft) W-SW 252 0 min 0,000 mm 0,0 UV-I 0 W/m 3,9 C 5,6 C 4,8 km/h (1 Bft) 98,21 %
23.12.2015 18:15 4,9 C 90 % 1031,4 hPa 0,0 l/m 1,8 km/h (1 Bft) W 275 0 min 0,000 mm 0,0 UV-I 0 W/m 3,4 C 4,9 C 3,2 km/h (1 Bft) 97,56 %
23.12.2015 18:20 5,0 C 93 % 1031,3 hPa 0,0 l/m 2,5 km/h (1 Bft) S-SW 209 0 min 0,000 mm 0,0 UV-I 0 W/m 4,0 C 5,0 C 4,8 km/h (1 Bft) 98,17 %
23.12.2015 18:25 5,2 C 92 % 1031,4 hPa 0,0 l/m 1,4 km/h (1 Bft) W-SW 238 0 min 0,000 mm 0,0 UV-I 0 W/m 4,0 C 5,2 C 3,2 km/h (1 Bft) 99,17 %
23.12.2015 18:30 5,4 C 92 % 1031,4 hPa 0,0 l/m 3,2 km/h (1 Bft) O-NO 57 0 min 0,000 mm 0,0 UV-I 0 W/m 4,2 C 5,4 C 4,8 km/h (1 Bft) 97,39 %
23.12.2015 18:35 5,8 C 90 % 1031,4 hPa 0,0 l/m 5,1 km/h (1 Bft) NO 56 0 min 0,000 mm 0,0 UV-I 0 W/m 4,3 C 5,8 C 6,4 km/h (2 Bft) 99,19 %
23.12.2015 18:40 5,9 C 90 % 1031,4 hPa 0,0 l/m 1,4 km/h (1 Bft) NO 56 0 min 0,000 mm 0,0 UV-I 0 W/m 4,4 C 5,9 C 4,8 km/h (1 Bft) 99,15 %
23.12.2015 18:45 5,8 C 90 % 1031,4 hPa 0,0 l/m 3,1 km/h (1 Bft) O 82 0 min 0,000 mm 0,0 UV-I 0 W/m 4,3 C 5,8 C 4,8 km/h (1 Bft) 96,33 %
23.12.2015 18:50 5,8 C 90 % 1031,5 hPa 0,0 l/m 2,5 km/h (1 Bft) O-SO 122 0 min 0,000 mm 0,0 UV-I 0 W/m 4,3 C 5,8 C 4,8 km/h (1 Bft) 99,17 %
23.12.2015 18:55 6,2 C 89 % 1031,3 hPa 0,0 l/m 1,7 km/h (1 Bft) S-SO 165 0 min 0,000 mm 0,0 UV-I 0 W/m 4,5 C 6,2 C 6,4 km/h (2 Bft) 100,00 %
23.12.2015 19:00 6,3 C 89 % 1031,3 hPa 0,0 l/m 3,5 km/h (1 Bft) S-SO 159 0 min 0,000 mm 0,0 UV-I 0 W/m 4,6 C 6,3 C 8,0 km/h (2 Bft) 99,17 %
23.12.2015 19:05 6,3 C 89 % 1031,3 hPa 0,0 l/m 3,0 km/h (1 Bft) S-SO 149 0 min 0,000 mm 0,0 UV-I 0 W/m 4,6 C 6,3 C 6,4 km/h (2 Bft) 100,00 %
23.12.2015 19:10 6,4 C 88 % 1031,4 hPa 0,0 l/m 0,7 km/h (0 Bft) S-SO 149 0 min 0,000 mm 0,0 UV-I 0 W/m 4,6 C 6,4 C 3,2 km/h (1 Bft) 98,35 %
23.12.2015 19:15 6,3 C 88 % 1031,4 hPa 0,0 l/m 0,5 km/h (0 Bft) S-SO 149 0 min 0,000 mm 0,0 UV-I 0 W/m 4,5 C 6,3 C 1,6 km/h (1 Bft) 99,11 %
23.12.2015 19:20 5,9 C 90 % 1031,5 hPa 0,0 l/m 1,3 km/h (1 Bft) S-SO 150 0 min 0,000 mm 0,0 UV-I 0 W/m 4,4 C 5,9 C 4,8 km/h (1 Bft) 99,12 %
23.12.2015 19:25 5,7 C 91 % 1031,5 hPa 0,0 l/m 2,1 km/h (1 Bft) S-SW 198 0 min 0,000 mm 0,0 UV-I 0 W/m 4,3 C 5,7 C 4,8 km/h (1 Bft) 99,17 %
23.12.2015 19:30 5,6 C 91 % 1031,5 hPa 0,0 l/m 4,0 km/h (1 Bft) SW 215 0 min 0,000 mm 0,0 UV-I 0 W/m 4,2 C 5,6 C 6,4 km/h (2 Bft) 99,15 %
23.12.2015 19:35 5,6 C 91 % 1031,5 hPa 0,0 l/m 4,6 km/h (1 Bft) S 180 0 min 0,000 mm 0,0 UV-I 0 W/m 4,2 C 5,6 C 6,4 km/h (2 Bft) 100,00 %
23.12.2015 19:40 5,7 C 91 % 1031,4 hPa 0,0 l/m 3,6 km/h (1 Bft) S 180 0 min 0,000 mm 0,0 UV-I 0 W/m 4,3 C 5,7 C 4,8 km/h (1 Bft) 99,15 %
23.12.2015 19:45 5,9 C 91 % 1031,5 hPa 0,0 l/m 3,7 km/h (1 Bft) S 175 0 min 0,000 mm 0,0 UV-I 0 W/m 4,5 C 5,9 C 6,4 km/h (2 Bft) 96,58 %
23.12.2015 19:50 6,1 C 90 % 1031,4 hPa 0,0 l/m 2,6 km/h (1 Bft) S 175 0 min 0,000 mm 0,0 UV-I 0 W/m 4,6 C 6,1 C 3,2 km/h (1 Bft) 97,25 %
23.12.2015 19:55 6,3 C 90 % 1031,4 hPa 0,0 l/m 0,8 km/h (0 Bft) S 175 0 min 0,000 mm 0,0 UV-I 0 W/m 4,8 C 6,3 C 3,2 km/h (1 Bft) 97,52 %
23.12.2015 20:00 6,3 C 89 % 1031,4 hPa 0,0 l/m 1,6 km/h (1 Bft) S 175 0 min 0,000 mm 0,0 UV-I 0 W/m 4,6 C 6,3 C 4,8 km/h (1 Bft) 98,25 %
23.12.2015 20:05 5,9 C 91 % 1031,4 hPa 0,0 l/m 4,1 km/h (1 Bft) S 175 0 min 0,000 mm 0,0 UV-I 0 W/m 4,5 C 5,9 C 6,4 km/h (2 Bft) 97,52 %
23.12.2015 20:10 6,0 C 91 % 1031,5 hPa 0,0 l/m 4,2 km/h (1 Bft) S 175 0 min 0,000 mm 0,0 UV-I 0 W/m 4,6 C 6,0 C 6,4 km/h (2 Bft) 96,61 %
23.12.2015 20:15 5,9 C 91 % 1031,4 hPa 0,0 l/m 3,8 km/h (1 Bft) S 176 0 min 0,000 mm 0,0 UV-I 0 W/m 4,5 C 5,9 C 4,8 km/h (1 Bft) 97,50 %
23.12.2015 20:20 5,8 C 90 % 1031,4 hPa 0,0 l/m 4,3 km/h (1 Bft) S 191 0 min 0,000 mm 0,0 UV-I 0 W/m 4,3 C 5,8 C 8,0 km/h (2 Bft) 97,32 %
23.12.2015 20:25 6,1 C 89 % 1031,5 hPa 0,0 l/m 5,1 km/h (1 Bft) S 172 0 min 0,000 mm 0,0 UV-I 0 W/m 4,4 C 6,1 C 8,0 km/h (2 Bft) 98,26 %
23.12.2015 20:30 6,2 C 89 % 1031,5 hPa 0,0 l/m 1,9 km/h (1 Bft) S 173 0 min 0,000 mm 0,0 UV-I 0 W/m 4,5 C 6,2 C 4,8 km/h (1 Bft) 98,10 %
23.12.2015 20:35 6,0 C 90 % 1031,5 hPa 0,0 l/m 1,1 km/h (1 Bft) S 173 0 min 0,000 mm 0,0 UV-I 0 W/m 4,5 C 6,0 C 3,2 km/h (1 Bft) 99,26 %
23.12.2015 20:40 6,2 C 88 % 1031,4 hPa 0,0 l/m 1,9 km/h (1 Bft) S 170 0 min 0,000 mm 0,0 UV-I 0 W/m 4,4 C 6,2 C 6,4 km/h (2 Bft) 98,33 %
23.12.2015 20:45 6,3 C 88 % 1031,5 hPa 0,0 l/m 3,8 km/h (1 Bft) S-SO 159 0 min 0,000 mm 0,0 UV-I 0 W/m 4,5 C 6,3 C 6,4 km/h (2 Bft) 100,00 %
23.12.2015 20:50 6,1 C 89 % 1031,5 hPa 0,0 l/m 2,1 km/h (1 Bft) N 360 0 min 0,000 mm 0,0 UV-I 0 W/m 4,4 C 6,1 C 4,8 km/h (1 Bft) 100,00 %
23.12.2015 20:55 6,0 C 89 % 1031,5 hPa 0,0 l/m 1,4 km/h (1 Bft) N 360 0 min 0,000 mm 0,0 UV-I 0 W/m 4,3 C 6,0 C 3,2 km/h (1 Bft) 99,19 %
23.12.2015 21:00 6,1 C 89 % 1031,5 hPa 0,0 l/m 0,5 km/h (0 Bft) N 360 0 min 0,000 mm 0,0 UV-I 0 W/m 4,4 C 6,1 C 1,6 km/h (1 Bft) 100,00 %
23.12.2015 21:05 6,1 C 89 % 1031,5 hPa 0,0 l/m 2,5 km/h (1 Bft) NO 49 0 min 0,000 mm 0,0 UV-I 0 W/m 4,4 C 6,1 C 4,8 km/h (1 Bft) 100,00 %
23.12.2015 21:10 6,3 C 88 % 1031,5 hPa 0,0 l/m 3,2 km/h (1 Bft) O-NO 63 0 min 0,000 mm 0,0 UV-I 0 W/m 4,5 C 6,3 C 4,8 km/h (1 Bft) 99,15 %
23.12.2015 21:15 6,2 C 88 % 1031,5 hPa 0,0 l/m 2,4 km/h (1 Bft) O-NO 58 0 min 0,000 mm 0,0 UV-I 0 W/m 4,4 C 6,2 C 4,8 km/h (1 Bft) 99,15 %
23.12.2015 21:20 6,2 C 88 % 1031,6 hPa 0,0 l/m 5,9 km/h (2 Bft) O-NO 59 0 min 0,000 mm 0,0 UV-I 0 W/m 4,4 C 6,2 C 8,0 km/h (2 Bft) 99,17 %
23.12.2015 21:25 6,3 C 88 % 1031,6 hPa 0,0 l/m 5,0 km/h (1 Bft) O 82 0 min 0,000 mm 0,0 UV-I 0 W/m 4,5 C 6,3 C 6,4 km/h (2 Bft) 100,00 %
23.12.2015 21:30 6,2 C 89 % 1031,6 hPa 0,0 l/m 3,2 km/h (1 Bft) O 81 0 min 0,000 mm 0,0 UV-I 0 W/m 4,5 C 6,2 C 6,4 km/h (2 Bft) 100,00 %
23.12.2015 21:35 5,9 C 89 % 1031,6 hPa 0,0 l/m 0,5 km/h (0 Bft) O-SO 115 0 min 0,000 mm 0,0 UV-I 0 W/m 4,2 C 5,9 C 3,2 km/h (1 Bft) 98,11 %
23.12.2015 21:40 5,9 C 91 % 1031,6 hPa 0,0 l/m 1,5 km/h (1 Bft) O-SO 115 0 min 0,000 mm 0,0 UV-I 0 W/m 4,5 C 5,9 C 3,2 km/h (1 Bft) 99,17 %
23.12.2015 21:45 5,8 C 91 % 1031,6 hPa 0,0 l/m 0,3 km/h (0 Bft) O-SO 115 0 min 0,000 mm 0,0 UV-I 0 W/m 4,4 C 5,8 C 1,6 km/h (1 Bft) 98,31 %
23.12.2015 21:50 5,6 C 91 % 1031,7 hPa 0,0 l/m 0,0 km/h (0 Bft) O-SO 115 0 min 0,000 mm 0,0 UV-I 0 W/m 4,2 C 5,6 C 1,6 km/h (1 Bft) 99,17 %
23.12.2015 21:55 5,4 C 92 % 1031,6 hPa 0,0 l/m 0,6 km/h (0 Bft) O-SO 115 0 min 0,000 mm 0,0 UV-I 0 W/m 4,2 C 5,4 C 1,6 km/h (1 Bft) 100,00 %
23.12.2015 22:00 5,5 C 92 % 1031,5 hPa 0,0 l/m 1,5 km/h (1 Bft) O-SO 115 0 min 0,000 mm 0,0 UV-I 0 W/m 4,3 C 5,5 C 3,2 km/h (1 Bft) 98,29 %
23.12.2015 22:05 5,5 C 92 % 1031,6 hPa 0,0 l/m 1,2 km/h (1 Bft) O-SO 115 0 min 0,000 mm 0,0 UV-I 0 W/m 4,3 C 5,5 C 3,2 km/h (1 Bft) 95,41 %
23.12.2015 22:10 5,6 C 92 % 1031,5 hPa 0,0 l/m 0,2 km/h (0 Bft) O-SO 115 0 min 0,000 mm 0,0 UV-I 0 W/m 4,4 C 5,6 C 1,6 km/h (1 Bft) 95,16 %
23.12.2015 22:15 5,6 C 92 % 1031,4 hPa 0,0 l/m 1,5 km/h (1 Bft) SO 130 0 min 0,000 mm 0,0 UV-I 0 W/m 4,4 C 5,6 C 3,2 km/h (1 Bft) 96,58 %
23.12.2015 22:20 5,6 C 91 % 1031,3 hPa 0,0 l/m 1,7 km/h (1 Bft) S-SO 157 0 min 0,000 mm 0,0 UV-I 0 W/m 4,2 C 5,6 C 3,2 km/h (1 Bft) 98,21 %
23.12.2015 22:25 5,8 C 89 % 1031,3 hPa 0,0 l/m 1,6 km/h (1 Bft) S-SO 160 0 min 0,000 mm 0,0 UV-I 0 W/m 4,1 C 5,8 C 3,2 km/h (1 Bft) 97,46 %
23.12.2015 22:30 5,7 C 89 % 1031,4 hPa 0,0 l/m 1,6 km/h (1 Bft) S-SO 160 0 min 0,000 mm 0,0 UV-I 0 W/m 4,0 C 5,7 C 3,2 km/h (1 Bft) 97,44 %
23.12.2015 22:35 5,5 C 90 % 1031,3 hPa 0,0 l/m 1,6 km/h (1 Bft) S-SO 160 0 min 0,000 mm 0,0 UV-I 0 W/m 4,0 C 5,5 C 3,2 km/h (1 Bft) 96,64 %
23.12.2015 22:40 5,4 C 90 % 1031,3 hPa 0,0 l/m 1,7 km/h (1 Bft) S-SO 160 0 min 0,000 mm 0,0 UV-I 0 W/m 3,9 C 5,4 C 6,4 km/h (2 Bft) 99,17 %
23.12.2015 22:45 5,1 C 91 % 1031,3 hPa 0,0 l/m 1,8 km/h (1 Bft) S-SO 160 0 min 0,000 mm 0,0 UV-I 0 W/m 3,8 C 5,1 C 6,4 km/h (2 Bft) 98,31 %
23.12.2015 22:50 5,1 C 91 % 1031,3 hPa 0,0 l/m 0,7 km/h (0 Bft) S-SO 160 0 min 0,000 mm 0,0 UV-I 0 W/m 3,8 C 5,1 C 3,2 km/h (1 Bft) 100,00 %
23.12.2015 22:55 5,1 C 91 % 1031,3 hPa 0,0 l/m 1,0 km/h (0 Bft) NW 311 0 min 0,000 mm 0,0 UV-I 0 W/m 3,8 C 5,1 C 6,4 km/h (2 Bft) 100,00 %
23.12.2015 23:00 5,0 C 92 % 1031,3 hPa 0,0 l/m 0,4 km/h (0 Bft) NW 311 0 min 0,000 mm 0,0 UV-I 0 W/m 3,8 C 5,0 C 3,2 km/h (1 Bft) 100,00 %
23.12.2015 23:05 4,9 C 92 % 1031,3 hPa 0,0 l/m 1,0 km/h (0 Bft) NW 311 0 min 0,000 mm 0,0 UV-I 0 W/m 3,7 C 4,9 C 3,2 km/h (1 Bft) 98,39 %
23.12.2015 23:10 5,1 C 92 % 1031,3 hPa 0,0 l/m 1,3 km/h (1 Bft) NW 311 0 min 0,000 mm 0,0 UV-I 0 W/m 3,9 C 5,1 C 3,2 km/h (1 Bft) 99,15 %
23.12.2015 23:15 4,9 C 92 % 1031,3 hPa 0,0 l/m 0,1 km/h (0 Bft) N-NW 346 0 min 0,000 mm 0,0 UV-I 0 W/m 3,7 C 4,9 C 1,6 km/h (1 Bft) 99,15 %
23.12.2015 23:20 4,9 C 92 % 1031,3 hPa 0,0 l/m 0,1 km/h (0 Bft) N-NW 346 0 min 0,000 mm 0,0 UV-I 0 W/m 3,7 C 4,9 C 1,6 km/h (1 Bft) 99,15 %
23.12.2015 23:25 5,1 C 92 % 1031,3 hPa 0,0 l/m 0,0 km/h (0 Bft) N-NW 346 0 min 0,000 mm 0,0 UV-I 0 W/m 3,9 C 5,1 C 0,0 km/h (0 Bft) 100,00 %
23.12.2015 23:30 5,2 C 91 % 1031,3 hPa 0,0 l/m 2,0 km/h (1 Bft) O 80 0 min 0,000 mm 0,0 UV-I 0 W/m 3,9 C 5,2 C 4,8 km/h (1 Bft) 99,08 %
23.12.2015 23:35 5,2 C 92 % 1031,3 hPa 0,0 l/m 0,6 km/h (0 Bft) NO 42 0 min 0,000 mm 0,0 UV-I 0 W/m 4,0 C 5,2 C 1,6 km/h (1 Bft) 99,17 %
23.12.2015 23:40 5,2 C 92 % 1031,2 hPa 0,0 l/m 0,1 km/h (0 Bft) NO 42 0 min 0,000 mm 0,0 UV-I 0 W/m 4,0 C 5,2 C 1,6 km/h (1 Bft) 99,17 %
23.12.2015 23:45 5,3 C 91 % 1031,2 hPa 0,0 l/m 0,9 km/h (0 Bft) NO 54 0 min 0,000 mm 0,0 UV-I 0 W/m 4,0 C 5,3 C 3,2 km/h (1 Bft) 100,00 %
23.12.2015 23:50 5,3 C 91 % 1031,0 hPa 0,0 l/m 1,1 km/h (1 Bft) SO 136 0 min 0,000 mm 0,0 UV-I 0 W/m 4,0 C 5,3 C 3,2 km/h (1 Bft) 99,19 %
23.12.2015 23:55 5,3 C 91 % 1031,1 hPa 0,0 l/m 0,9 km/h (0 Bft) SO 136 0 min 0,000 mm 0,0 UV-I 0 W/m 4,0 C 5,3 C 3,2 km/h (1 Bft) 99,15 %
_ Min-Zeit 05:45 14:15 03:15 - 16:25 - - - - - - 05:45 05:45 16:25 04:00
Minimum _ 0,7 C 70 % 1026,7 hPa - 0,0 km/h (0 Bft) - - - - - - -0,2 C 0,7 C 0,0 km/h (0 Bft) 94,07 %
_ Max-Zeit 14:35 01:35 21:50 00:00 10:35 - - 13:45 12:00 11:20 12:10 14:50 14:30 10:15 00:25
Maximum _ 11,4 C 95 % 1031,7 hPa 0,0 l/m 12,1 km/h
W (2 Bft)
- - 10 min 0,127 mm 0,7 UV-I 280 W/m 6,6 C 11,3 C 17,7 km/h
W-SW (3 Bft)
100,00 %
Durchschnitt _ 5,1 C 87 % 1029,6 hPa #0,0 l/m 2,8 km/h (1 Bft) S - #6:15 h #0,660 mm 0,6 UV-I 155 W/m 3,1 C 5,0 C 5,3 km/h (1 Bft) 98,61 %